IRIDIUM 33 DEB, 38474

Orbit data source: Space-Track

IRIDIUM 33 DEB, 38474 is space debris in LEO originally from a launch on Sun, 14 Sep 1997 UTC launched from the Tyuratam Missile And Space Complex (TTMTR). The debris from Iridium 33, an American commercial communications satellite, has been tracked extensively since its accidental collision with the defunct Russian satellite Cosmos 2251 in 2009. This event, occurring at high speed in low Earth orbit (LEO), generated thousands of pieces of space debris, significantly increasing the risk of further collisions. The Iridium 33 debris cloud has impacted space traffic management and orbital debris mitigation strategies, making it a subject of ongoing study in space situational awareness.

Loading next visibility...
Identifier
38474, 1997-051AAB
Orbit
LEO
Country
Flag of USUS
Related business
Manufacturer
Unknown
Mission
Spacecraft
Bus & Motor
Unknown
Mass
Unknown
Launch date (UTC)
1997-09-14 (28 years ago)
Launch vehicle
Unknown
Launch site
Tyuratam Missile And Space Complex (TTMTR)
Object type
Payload
Rocket body
Debris
Shape & HBR
Unknown
Radar Cross Section
Small (<0.1 m²)

Expand to show TLE details & history
Last TLE update: 4 days ago

TLE from 4 days ago
0 IRIDIUM 33 DEB
1 38474U 97051AAB 25257.13288242  .00001580  00000-0  40062-3 0  9998
2 38474  86.3482  49.0761 0027022  31.6884 328.5940 14.50035615640190
Epoch: 2025-09-14T03:11Z
TLE epoch observation values (Epoch: 2025-09-14T03:11:21.041Z)
Latitude
-0.00001°
Longitude
7.88216°
Altitude
712.232 km
Speed
7.508 km/s
True Right ascension
03h 16m 18s
True Declination
0° 00' 00"
Sunlit
Object was in full shadow at epoch
Visualization orbit readout
Latitude
Unknown
Longitude
Unknown
Altitude
Unknown
Speed
Unknown
Apparent Right ascension
Unknown
Apparent Declination
Unknown
Sunlit
N/A
Visualization observer readout
Local Sidereal Time
07:20:16
Azimuth
Unknown
Elevation
Unknown
Doppler factor
Unknown
Orbital elements
Apogee altitude
741.663 km
Perigee altitude
703.288 km
Semi-major axis
7,100.612 km
Eccentricity
0.0027
Inclination
86.3482°
RAAN
49.0761°
Arg. of periapsis
31.6884°
True anomaly
328.43218°
Mean anomaly
328.594°
Eccentric anomaly
328.51313°
Mean motion
3.62743 °/min
Orbital period
99.24 mins
BSTAR
0.00040062
Loading maneuver chart data...
Computing Atmospheric mass density...

Documentation

Showing up to 5 results
|